TimeCET,TemperatureF,Dew PointF,Humidity,Sea Level PressureIn,VisibilityMPH,Wind Direction,Wind SpeedMPH,Gust SpeedMPH,PrecipitationIn,Events,Conditions,WindDirDegrees,DateUTC
1:00 AM,41,36,74,29.99,6,NNW,4.6,,,,Scattered Clouds,330,2013-02-25 00:00:00
1:55 AM,39.2,35.6,87,29.98,-9999.0,West,4.6,-,N/A,,Clear,280,2013-02-25 00:55:00
2:55 AM,37.4,35.6,93,29.98,-9999.0,WNW,3.5,-,N/A,,Clear,290,2013-02-25 01:55:00
4:00 AM,35,35,97,29.99,6,WSW,4.6,,,,,250,2013-02-25 03:00:00
4:55 AM,33.8,33.8,100,29.98,-9999.0,West,3.5,-,N/A,,Clear,260,2013-02-25 03:55:00
5:55 AM,33.8,33.8,100,29.98,6.2,NNW,2.3,-,N/A,,Partly Cloudy,340,2013-02-25 04:55:00
6:55 AM,32.0,32.0,100,29.98,6.2,WSW,5.8,-,N/A,,Scattered Clouds,250,2013-02-25 05:55:00
7:00 AM,32,32,100,30.00,6,WSW,5.8,,,,Scattered Clouds,250,2013-02-25 06:00:00
7:55 AM,33.8,33.8,100,30.01,6.2,WSW,4.6,-,N/A,,Scattered Clouds,250,2013-02-25 06:55:00
8:55 AM,41.0,41.0,100,30.01,6.2,WNW,3.5,-,N/A,,Scattered Clouds,290,2013-02-25 07:55:00
9:55 AM,42.8,42.8,100,30.01,6.2,NW,2.3,-,N/A,,Scattered Clouds,310,2013-02-25 08:55:00
10:00 AM,42,42,100,30.02,6,NW,2.3,,,,Scattered Clouds,310,2013-02-25 09:00:00
10:55 AM,51.8,33.8,50,30.01,6.2,NW,3.5,-,N/A,,Scattered Clouds,310,2013-02-25 09:55:00
11:55 AM,57.2,30.2,36,29.98,6.2,WSW,10.4,-,N/A,,Scattered Clouds,240,2013-02-25 10:55:00
12:55 PM,59.0,26.6,29,29.98,6.2,WSW,6.9,-,N/A,,Mostly Cloudy,250,2013-02-25 11:55:00
1:00 PM,59,27,18,29.99,6,WSW,6.9,,,,Scattered Clouds,250,2013-02-25 12:00:00
1:55 PM,59.0,24.8,27,29.95,6.2,West,5.8,-,N/A,,Mostly Cloudy,260,2013-02-25 12:55:00
2:55 PM,62.6,28.4,27,29.95,6.2,West,5.8,-,N/A,,Mostly Cloudy,270,2013-02-25 13:55:00
3:55 PM,60.8,24.8,25,29.95,6.2,East,10.4,-,N/A,,Mostly Cloudy,100,2013-02-25 14:55:00
4:00 PM,61,24,14,29.96,6,East,10.4,,,,Scattered Clouds,100,2013-02-25 15:00:00
4:55 PM,55.4,30.2,38,29.95,6.2,East,10.4,-,N/A,,Mostly Cloudy,90,2013-02-25 15:55:00
5:55 PM,53.6,33.8,47,29.95,5.0,East,8.1,-,N/A,,Mostly Cloudy,90,2013-02-25 16:55:00
6:55 PM,51.8,39.2,62,29.95,3.7,East,3.5,-,N/A,Rain,Light Rain,80,2013-02-25 17:55:00
7:00 PM,52,40,52,29.97,4,East,3.5,,,Rain,Light Rain,80,2013-02-25 18:00:00
7:55 PM,50.0,48.2,94,29.98,3.7,Calm,Calm,-,N/A,Rain,Light Rain,0,2013-02-25 18:55:00
8:55 PM,46.4,44.6,93,30.01,4.3,South,8.1,-,N/A,,Mostly Cloudy,180,2013-02-25 19:55:00
9:55 PM,46.4,46.4,100,30.01,4.3,East,4.6,-,N/A,,Mostly Cloudy,100,2013-02-25 20:55:00
10:55 PM,46.4,46.4,100,30.01,3.7,NE,5.8,-,N/A,Rain,Light Rain,50,2013-02-25 21:55:00
11:55 PM,44.6,44.6,100,30.01,4.3,Calm,Calm,-,N/A,Rain,Light Rain,0,2013-02-25 22:55:00